Voltar ao catálogo

IRIDIUM 163

AtivoComunicaçõesPO
NORAD 43575·PAYLOAD·🇺🇸 United States

Lançado Jul 25, 2018 de Vandenberg Space Force Base

Loading…

Próximas Passagens (próximas 24 horas)

TLE

AtualizadoSource: CelesTrak SupGP

Época: Sep 14, 2026, 21:32 UTC

1 43575C 18061G   26257.89756944 -.00000708  00000+0 -25324-3 0  2576
2 43575  86.4011  19.2004 0002247  96.2979  71.2736 14.34219213    16

Acompanhe IRIDIUM 163 em tempo real com AllMySat

Download on the App Store